Ubon Ratchathani, Thailand

9:51 AM ICT on February 08, 2016 (GMT +0700)
Ubon Ratchathani

Weather History for VTUU - November, 2012

Change the Weather History Date:

Friday, November 9, 2012

  Actual Average Record
Temperature  
Mean Temperature 86 °F -  
Max Temperature 95 °F 87 °F - ()
Min Temperature 77 °F 66 °F - ()
Cooling Degree Days 21    
Growing Degree Days 36 (Base 50)    
Moisture  
Dew Point 74 °F    
Average Humidity 67    
Maximum Humidity 89    
Minimum Humidity 46    
Precipitation  
Precipitation 0.00 in 0.02 in - ()
Sea Level Pressure  
Sea Level Pressure 29.78 in    
Wind  
Wind Speed 2 mph ()    
Max Wind Speed 6 mph    
Max Gust Speed -    
Visibility 6.0 miles    
Events      
T = Trace of Precipitation, MM = Missing Value Source: Averaged Metar Reports

Daily Weather History Graph

Daily Weather History Graph

Search for Another Location

Airport or City:

Trip Planner

Search our weather history database for the weather conditions in past years. The results will help you decide how hot, cold, wet, or windy it might be!

Date:

Astronomy

Nov. 09, 2012 Rise Set
Actual Time 5:59 AM ICT 5:28 PM ICT
Civil Twilight 5:37 AM ICT 5:51 PM ICT
Nautical Twilight 5:11 AM ICT 6:16 PM ICT
Astronomical Twilight 4:45 AM ICT 6:42 PM ICT
Moon 1:12 AM ICT (11/9) 1:41 PM ICT (11/9)
Length of Visible Light 12h 13m
Length of Day
11h 29m
Waning Crescent, 28% of the Moon is Illuminated
Nov 9
Waning Crescent
Nov 14
New
Nov 20
First Quarter
Nov 28
Full
Dec 6
Last Quarter

Hourly Weather History & Observations

Time (ICT) Temp. Heat Index Dew Point Humidity Pressure Visibility Wind Dir Wind Speed Gust Speed Precip Events Conditions
1:00 AM 79 °F - 74 °F 79% 29.77 in 5 mi NE 1.2 mph - -   Mist
1:00 AM 78.8 °F - 73.4 °F 83% 29.74 in 5.0 mi NE 1.2 mph - N/A   Scattered Clouds
4:00 AM 78.8 °F - 73.4 °F 83% 29.74 in 5.0 mi North 4.6 mph - N/A   Scattered Clouds
6:30 AM 78.8 °F - 73.4 °F 83% 29.83 in 5.0 mi North 2.3 mph - N/A   Scattered Clouds
7:00 AM 79 °F - 75 °F 83% 29.92 in 6 mi North 1.2 mph - -   Scattered Clouds
7:00 AM 78.8 °F - 75.2 °F 89% 29.83 in 6.2 mi North 1.2 mph - N/A   Scattered Clouds
8:00 AM 82.4 °F 89.5 °F 75.2 °F 79% 29.86 in 6.2 mi West 2.3 mph - N/A   Mostly Cloudy
9:00 AM 84.2 °F 90.9 °F 73.4 °F 70% 29.86 in 6.2 mi SSW 2.3 mph - N/A   Mostly Cloudy
10:00 AM 87.8 °F 97.6 °F 75.2 °F 66% 29.86 in 6.2 mi ENE 1.2 mph - N/A   Mostly Cloudy
11:00 AM 89.6 °F 98.2 °F 73.4 °F 59% 29.83 in 6.2 mi SE 2.3 mph - N/A   Scattered Clouds
12:00 PM 89.6 °F 98.2 °F 73.4 °F 59% 29.80 in 6.2 mi South 2.3 mph - N/A   Scattered Clouds
1:00 PM 91 °F - 73 °F 46% 29.76 in 6 mi WNW 5.8 mph - -   Partly Cloudy
1:00 PM 91.4 °F 100.1 °F 73.4 °F 55% 29.74 in 6.2 mi WNW 5.8 mph - N/A   Scattered Clouds
2:00 PM 93.2 °F 102.4 °F 73.4 °F 52% 29.71 in 6.2 mi WSW 3.5 mph - N/A   Scattered Clouds
3:00 PM 93.2 °F 102.4 °F 73.4 °F 52% 29.71 in 6.2 mi NW 1.2 mph - N/A   Scattered Clouds
4:00 PM 95.0 °F 107.4 °F 75.2 °F 53% 29.71 in 6.2 mi ENE 2.3 mph - N/A   Scattered Clouds
5:00 PM 91.4 °F 100.1 °F 73.4 °F 55% 29.71 in 6.2 mi SE 2.3 mph - N/A   Mostly Cloudy
5:30 PM 91.4 °F 100.1 °F 73.4 °F 55% 29.74 in 6.2 mi West 2.3 mph - N/A   Mostly Cloudy
6:00 PM 89.6 °F 98.2 °F 73.4 °F 59% 29.74 in 6.2 mi North 2.3 mph - N/A   Mostly Cloudy
7:00 PM 89 °F - 77 °F 61% 29.76 in 6 mi NNE 2.3 mph - -   Scattered Clouds
7:00 PM 87.8 °F 97.6 °F 75.2 °F 66% 29.74 in 6.2 mi NNE 2.3 mph - N/A   Mostly Cloudy
8:00 PM 87.8 °F 99.7 °F 77.0 °F 70% 29.80 in 6.2 mi NE 1.2 mph - N/A   Scattered Clouds
9:00 PM 86.0 °F 95.1 °F 75.2 °F 70% 29.80 in 6.2 mi NE 1.2 mph - N/A   Scattered Clouds
10:00 PM 84.2 °F 92.3 °F 75.2 °F 74% 29.80 in 6.2 mi SE 2.3 mph - N/A   Scattered Clouds
11:00 PM 84.2 °F 92.3 °F 75.2 °F 74% 29.80 in 6.2 mi ESE 1.2 mph - N/A   Unknown